Weather in Sept-Iles

Canada     50°12′40″N   66°22′32″W
В апреле 2022 года жителям России запретили посещать сайт meteo.paraplan.net по решению Генеральной прокуратуры. Аудитория сайта уменьшилась в 10 раз. Владельцы сайта не видят смысла в поддержке погодного сервера в таких условиях. Сайт будет закрыт в октябре.
temp.,
°C
wind,
m/s
gust,
m/s
humid.,
%
clouds,
%
prec.,
mm/h
press.,
hPa
HPBL,
m
4 october, tue
tue423:00+6w236010 0.0 102043
02:00+6w22645 0.0 101952
05:00+6w236884 0.0 101871
08:00+7w126146 0.0 101895
11:00+10sw226489 0.0 101859
14:00+11wsw2371100 0.1 1017134
17:00+10w2277100 0.0 101719
20:00+9nw1183100 0.2 101820
5 october, wed
wed523:00+9wnw1185100 0.2 101715
02:00+9wnw118784 0.3 101715
05:00+8nnw229121 0.0 101616
08:00+9nnw238367 0.0 101788
11:00+11nw017998 0.0 1016203
14:00+12ssw2379100 0.0 1015334
17:00+10sse118996 0.0 101553
20:00+9e1193100 0.3 101438
6 october, thu
thu623:00+9sse2298100 1.2 1014111
02:00+9se2296100 1.8 1012111
05:00+8se229788 0.9 1012110
08:00+9ene129797 1.1 101264
11:00+10e119473 0.1 101170
14:00+11ese118938 0.1 1011125
17:00+12e119185 0.3 101030
20:00+10nne119790 0.6 101110
7 october, fri
fri723:00+10n3492100 0.1 1012127
02:00+7nnw368690 0.2 1014196
05:00+7n4782100 0.0 1014366
08:00+7nne3779100 0.0 1016426
11:00+6nne4877100 0.2 1017441
14:00+6nne4776100 0.6 1016418
17:00+6ne4775100 0.1 1016559
20:00+5ene51183100 0.9 1016773
8 october, sat
sat823:00+5ene61286100 0.7 1014763
02:00+6ene81592100 1.7 1012746
05:00+6e101793100 3.6 1009842
08:00+6e101895100 3.9 1006744
11:00+7e91797100 3.9 1003719
14:00+8ese81498100 8.1 999581
17:00+8wsw0199100 2.4 99747
20:00+7sw3594100 2.4 995182